Location: St. Louis
(38.6270°N, 90.1994°W)
Time: 05:29:33
(UTC-06:00)

Courier 1B - Pass Details

Date: 29 November 2021
Orbit: 962 x 1209 km, 28.3° (Epoch: 19 January)

Event Time Altitude Azimuth Distance (km) Brightness Sun altitude
Rises 17:18:47 0° 221° (SW) 3,960 12.0 -7.7°
Reaches altitude 10° 17:22:21 10° 207° (SSW) 2,957 10.8 -8.3°
Maximum altitude 17:27:32 21° 161° (SSE) 2,179 9.4 -9.3°
Drops below altitude 10° 17:32:30 10° 114° (ESE) 2,828 9.5 -10.2°
Enters shadow 17:33:59 - 106° (ESE) 3,211 9.7 -10.5°
